Weather History for Millington, TN

Change the Weather History Date:

Monday, August 11, 2014

  Actual Average Record
Temperature  
Mean Temperature 83 °F -  
Max Temperature 91 °F 88 °F 102 °F (2007)
Min Temperature 75 °F 69 °F 37 °F (2003)
Cooling Degree Days 18    
Growing Degree Days 33 (Base 50)    
Moisture  
Dew Point 76 °F    
Average Humidity 82    
Maximum Humidity 94    
Minimum Humidity 59    
Precipitation  
Precipitation 0.00 in - - ()
Sea Level Pressure  
Sea Level Pressure 29.93 in    
Wind  
Wind Speed 5 mph (West)    
Max Wind Speed 12 mph    
Max Gust Speed -    
Visibility 10 miles    
Events      
Averages and records for this station are not official NWS values.
T = Trace of Precipitation, MM = Missing Value Source: NWS Daily Summary

Daily Weather History Graph

Daily Weather History Graph

Search for Another Location

Airport:

Trip Planner

Search our weather history database for the weather conditions in past years. The results will help you decide how hot, cold, wet, or windy it might be!

Date:

Astronomy

Aug. 11, 2014 Rise Set
Actual Time 6:15 AM CDT 7:52 PM CDT
Civil Twilight 5:48 AM CDT 8:20 PM CDT
Nautical Twilight 5:15 AM CDT 8:52 PM CDT
Astronomical Twilight 4:41 AM CDT 9:27 PM CDT
Moon 8:26 PM CDT (8/11) 7:16 AM CDT (8/11)
Length of Visible Light 14h 31m
Length of Day
13h 37m
Full, 99% of the Moon is Illuminated
Aug 11
Full
Aug 17
Last Quarter
Aug 25
New
Sep 2
First Quarter
Sep 8
Full

Hourly Weather History & Observations

Time (CDT) Temp. Heat Index Dew Point Humidity Pressure Visibility Wind Dir Wind Speed Gust Speed Precip Events Conditions
2:15 AM 78.8 °F - 75.2 °F 89% 29.94 in 10.0 mi SW 4.6 mph - N/A   Clear
2:35 AM 78.8 °F - 75.2 °F 89% 29.93 in 10.0 mi Variable 4.6 mph - N/A   Clear
3:15 AM 77.0 °F - 75.2 °F 94% 29.93 in 10.0 mi Variable 3.5 mph - N/A   Clear
3:35 AM 77.0 °F - 75.2 °F 94% 29.93 in 10.0 mi SW 4.6 mph - N/A   Clear
3:55 AM 77.0 °F - 75.2 °F 94% 29.93 in 10.0 mi Variable 3.5 mph - N/A   Clear
4:15 AM 77.0 °F - 75.2 °F 94% 29.93 in 10.0 mi Calm Calm - N/A   Clear
4:35 AM 77.0 °F - 75.2 °F 94% 29.93 in 10.0 mi Calm Calm - N/A   Clear
4:55 AM 77.0 °F - 75.2 °F 94% 29.93 in 10.0 mi Calm Calm - N/A   Clear
8:50 AM 82.4 °F 90.9 °F 77.0 °F 84% 29.95 in 10.0 mi SW 9.2 mph - N/A   Mostly Cloudy
9:10 AM 84.2 °F 96.1 °F 78.8 °F 84% 29.95 in 10.0 mi SW 9.2 mph - N/A   Mostly Cloudy
10:50 AM 87.8 °F 102.5 °F 78.8 °F 75% 29.95 in 10.0 mi Variable 6.9 mph - N/A   Mostly Cloudy
11:50 AM 89.6 °F 102.2 °F 77.0 °F 66% 29.94 in 10.0 mi West 10.4 mph - N/A   Mostly Cloudy
12:50 PM 91.4 °F 105.1 °F 77.0 °F 63% 29.94 in 10.0 mi West 9.2 mph - N/A   Mostly Cloudy
1:50 PM 91.4 °F 105.1 °F 77.0 °F 63% 29.93 in 10.0 mi NW 11.5 mph - N/A   Mostly Cloudy
2:50 PM 91.4 °F 105.1 °F 77.0 °F 63% 29.91 in 10.0 mi WNW 11.5 mph - N/A   Mostly Cloudy
5:50 PM 89.6 °F 98.2 °F 73.4 °F 59% 29.90 in 10.0 mi WNW 11.5 mph - N/A   Mostly Cloudy
6:50 PM 87.8 °F 97.6 °F 75.2 °F 66% 29.90 in 10.0 mi NW 4.6 mph - N/A   Mostly Cloudy
8:50 PM 78.8 °F - 73.4 °F 83% 29.92 in 10.0 mi Calm Calm - N/A   Scattered Clouds
10:50 PM 75.2 °F - 73.4 °F 94% 29.93 in 10.0 mi Calm Calm - N/A   Scattered Clouds
11:50 PM 75.2 °F - 73.4 °F 94% 29.93 in 10.0 mi Calm Calm - N/A   Scattered Clouds